Location: Unspecified
(0.0000°N, 0.0000°E)
Time: 04:15:36
(UTC+02:00)

BREEZE-M DEB (TANK) - Visible Passes

Search period start: 03 September 2014 00:00
Search period end: 13 September 2014 00:00
Orbit: 336 x 16418 km, 49.5° (Epoch: 02 September)

Date Brightness Start Highest point End Pass type
(mag) Time Alt. Az. Time Alt. Az. Time Alt. Az.
03 Sep 8.8 00:00:00 37° N 23:59:45 38° N 00:29:52 10° NNE visible
03 Sep 8.7 21:43:55 10° SW 23:06:13 61° W 01:19:58 10° NNE visible
04 Sep 8.1 17:20:38 10° S 18:37:15 36° E 20:33:12 10° NE visible
04 Sep 8.6 22:37:27 10° SW 23:58:39 45° W 02:09:16 10° N visible
05 Sep 6.4 07:33:21 10° NNE 07:34:24 10° NNE 07:35:19 10° NNE visible
05 Sep 8.3 18:07:18 10° S 19:22:33 52° E 21:32:20 10° NE visible
05 Sep 8.5 23:36:05 10° WSW 00:52:04 29° WNW 02:57:32 10° N visible
06 Sep 8.5 18:55:11 10° SSW 20:09:42 70° E 22:27:02 10° NNE visible
07 Sep 8.2 00:52:16 10° W 01:48:06 15° WNW 03:42:16 10° N visible
07 Sep 8.7 19:43:58 10° SSW 20:59:10 88° E 23:19:28 10° NNE visible
08 Sep 8.8 20:33:48 10° SW 21:50:34 74° W 00:10:32 10° NNE visible
09 Sep 8.7 21:25:11 10° SW 22:43:15 57° WNW 01:00:41 10° NNE visible
10 Sep 8.1 17:00:42 10° S 18:09:27 40° E 20:14:48 10° NE visible
10 Sep 8.5 22:19:24 10° SW 23:36:49 41° WNW 01:50:06 10° N visible
11 Sep 5.9 07:11:24 10° N 07:16:18 16° NNE 07:19:03 10° ENE visible
11 Sep 8.3 17:47:37 10° SSW 18:55:23 56° E 21:12:59 10° NE visible
11 Sep 8.3 23:20:04 10° WSW 00:31:44 26° WNW 02:38:37 10° N visible
12 Sep 8.5 18:35:34 10° SSW 19:43:38 74° E 22:07:20 10° NNE visible
